Time,TemperatureF,DewpointF,PressureIn,WindDirection,WindDirectionDegrees,WindSpeedMPH,WindSpeedGustMPH,Humidity,HourlyPrecipIn,Conditions,Clouds,dailyrainin,SolarRadiationWatts/m^2,SoftwareType,DateUTC
2013-11-09 00:03:00,33.0,29.0,30.43,WSW,248,0.0,2.0,86,0.00,,,0.00,0.000000,,2013-11-09 05:03:00,
2013-11-09 00:10:00,32.0,30.0,30.42,ENE,58,1.0,2.0,91,0.00,,,0.00,0.000000,,2013-11-09 05:10:00,
2013-11-09 00:44:00,32.0,30.0,30.42,ENE,58,1.0,2.0,91,0.00,,,0.00,0.000000,,2013-11-09 05:44:00,
2013-11-09 00:53:00,32.0,30.0,30.42,ENE,58,1.0,2.0,91,0.00,,,0.00,0.000000,,2013-11-09 05:53:00,
2013-11-09 01:03:00,32.0,30.0,30.42,ENE,58,1.0,2.0,91,0.00,,,0.00,0.000000,,2013-11-09 06:03:00,
2013-11-09 01:10:00,31.0,29.0,30.44,North,2,1.0,3.0,94,0.00,,,0.00,0.000000,,2013-11-09 06:10:00,
2013-11-09 01:43:00,31.0,29.0,30.44,North,2,1.0,3.0,94,0.00,,,0.00,0.000000,,2013-11-09 06:43:00,
2013-11-09 01:54:00,31.0,29.0,30.44,North,2,1.0,3.0,94,0.00,,,0.00,0.000000,,2013-11-09 06:54:00,
2013-11-09 02:03:00,31.0,29.0,30.44,North,2,1.0,3.0,94,0.00,,,0.00,0.000000,,2013-11-09 07:03:00,
2013-11-09 02:10:00,30.0,29.0,30.44,West,265,1.0,3.0,95,0.00,,,-99.99,0.000000,,2013-11-09 07:10:00,
2013-11-09 02:42:00,30.0,29.0,30.44,West,265,1.0,3.0,95,0.00,,,-99.99,0.000000,,2013-11-09 07:42:00,
2013-11-09 02:53:00,30.0,29.0,30.44,West,265,1.0,3.0,95,0.00,,,-99.99,0.000000,,2013-11-09 07:53:00,
2013-11-09 03:02:00,30.0,29.0,30.44,West,265,1.0,3.0,95,0.00,,,-99.99,0.000000,,2013-11-09 08:02:00,
2013-11-09 03:10:00,29.0,28.0,30.44,NW,306,2.0,4.0,97,0.00,,,0.00,0.000000,,2013-11-09 08:10:00,
2013-11-09 03:42:00,29.0,28.0,30.44,NW,306,2.0,4.0,97,0.00,,,0.00,0.000000,,2013-11-09 08:42:00,
2013-11-09 03:52:00,29.0,28.0,30.44,NW,306,2.0,4.0,97,0.00,,,0.00,0.000000,,2013-11-09 08:52:00,
2013-11-09 04:02:00,29.0,28.0,30.44,NW,306,2.0,4.0,97,0.00,,,0.00,0.000000,,2013-11-09 09:02:00,
2013-11-09 04:10:00,28.0,28.0,30.44,NNW,331,1.0,4.0,98,0.00,,,0.00,0.000000,,2013-11-09 09:10:00,
2013-11-09 04:43:00,28.0,28.0,30.44,NNW,331,1.0,4.0,98,0.00,,,0.00,0.000000,,2013-11-09 09:43:00,
2013-11-09 04:53:00,28.0,28.0,30.44,NNW,331,1.0,4.0,98,0.00,,,0.00,0.000000,,2013-11-09 09:53:00,
2013-11-09 05:03:00,28.0,28.0,30.44,NNW,331,1.0,4.0,98,0.00,,,0.00,0.000000,,2013-11-09 10:03:00,
2013-11-09 05:10:00,28.0,28.0,30.45,NW,316,0.0,5.0,98,0.00,,,0.00,0.000000,,2013-11-09 10:10:00,
2013-11-09 05:43:00,28.0,28.0,30.45,NW,316,0.0,5.0,98,0.00,,,0.00,0.000000,,2013-11-09 10:43:00,
2013-11-09 05:52:00,28.0,28.0,30.45,NW,316,0.0,5.0,98,0.00,,,0.00,0.000000,,2013-11-09 10:52:00,
2013-11-09 06:03:00,28.0,28.0,30.45,NW,316,0.0,5.0,98,0.00,,,0.00,0.000000,,2013-11-09 11:03:00,
2013-11-09 06:10:00,28.0,28.0,30.47,NW,316,1.0,2.0,98,0.00,,,0.00,0.000000,,2013-11-09 11:10:00,
2013-11-09 06:43:00,28.0,28.0,30.47,NW,316,1.0,2.0,98,0.00,,,0.00,0.000000,,2013-11-09 11:43:00,
2013-11-09 06:52:00,28.0,28.0,30.47,NW,316,1.0,2.0,98,0.00,,,0.00,0.000000,,2013-11-09 11:52:00,
2013-11-09 07:02:00,28.0,28.0,30.47,NW,316,1.0,2.0,98,0.00,,,0.00,0.000000,,2013-11-09 12:02:00,
2013-11-09 07:10:00,27.0,27.0,30.47,WNW,300,1.0,3.0,98,0.00,,,0.00,1.000000,,2013-11-09 12:10:00,
2013-11-09 07:42:00,27.0,27.0,30.47,WNW,300,1.0,3.0,98,0.00,,,0.00,1.000000,,2013-11-09 12:42:00,
2013-11-09 07:52:00,27.0,27.0,30.47,WNW,300,1.0,3.0,98,0.00,,,0.00,1.000000,,2013-11-09 12:52:00,
2013-11-09 08:02:00,27.0,27.0,30.47,WNW,300,1.0,3.0,98,0.00,,,0.00,1.000000,,2013-11-09 13:02:00,
2013-11-09 08:10:00,31.0,30.0,30.48,ENE,73,0.0,2.0,97,0.00,,,0.00,28.000000,,2013-11-09 13:10:00,
2013-11-09 08:42:00,31.0,30.0,30.48,ENE,73,0.0,2.0,97,0.00,,,0.00,28.000000,,2013-11-09 13:42:00,
2013-11-09 08:52:00,31.0,30.0,30.48,ENE,73,0.0,2.0,97,0.00,,,0.00,28.000000,,2013-11-09 13:52:00,
2013-11-09 09:02:00,31.0,30.0,30.48,ENE,73,0.0,2.0,97,0.00,,,0.00,28.000000,,2013-11-09 14:02:00,
2013-11-09 09:10:00,40.0,36.0,30.48,WNW,284,1.0,2.0,86,0.00,,,0.00,85.000000,,2013-11-09 14:10:00,
2013-11-09 09:42:00,40.0,36.0,30.48,WNW,284,1.0,2.0,86,0.00,,,0.00,85.000000,,2013-11-09 14:42:00,
2013-11-09 09:52:00,40.0,36.0,30.48,WNW,284,1.0,2.0,86,0.00,,,0.00,85.000000,,2013-11-09 14:52:00,
2013-11-09 10:02:00,40.0,36.0,30.48,WNW,284,1.0,2.0,86,0.00,,,0.00,85.000000,,2013-11-09 15:02:00,
2013-11-09 10:10:00,55.0,31.0,30.47,East,96,2.0,9.0,39,0.00,,,0.00,351.000000,,2013-11-09 15:10:00,
2013-11-09 10:54:00,55.0,31.0,30.47,East,96,2.0,9.0,39,0.00,,,0.00,351.000000,,2013-11-09 15:54:00,
2013-11-09 11:04:00,55.0,31.0,30.47,East,96,2.0,9.0,39,0.00,,,0.00,351.000000,,2013-11-09 16:04:00,
2013-11-09 11:10:00,54.0,26.0,30.44,South,191,6.0,14.0,33,0.00,,,0.00,555.000000,,2013-11-09 16:10:00,
2013-11-09 11:43:00,54.0,26.0,30.44,South,191,6.0,14.0,33,0.00,,,0.00,555.000000,,2013-11-09 16:43:00,
2013-11-09 11:53:00,54.0,26.0,30.44,South,191,6.0,14.0,33,0.00,,,0.00,555.000000,,2013-11-09 16:53:00,
2013-11-09 12:03:00,54.0,26.0,30.44,South,191,6.0,14.0,33,0.00,,,0.00,555.000000,,2013-11-09 17:03:00,
2013-11-09 12:10:00,56.0,25.0,30.42,SSW,200,8.0,17.0,30,0.00,,,0.00,690.000000,,2013-11-09 17:10:00,
2013-11-09 12:44:00,56.0,25.0,30.42,SSW,200,8.0,17.0,30,0.00,,,0.00,690.000000,,2013-11-09 17:44:00,
2013-11-09 12:52:00,56.0,25.0,30.42,SSW,200,8.0,17.0,30,0.00,,,0.00,690.000000,,2013-11-09 17:52:00,
2013-11-09 13:02:00,56.0,25.0,30.42,SSW,200,8.0,17.0,30,0.00,,,0.00,690.000000,,2013-11-09 18:02:00,
2013-11-09 13:10:00,61.0,28.0,30.38,SW,225,6.0,15.0,28,0.00,,,0.00,605.000000,,2013-11-09 18:10:00,
2013-11-09 13:42:00,61.0,28.0,30.38,SW,225,6.0,15.0,28,0.00,,,0.00,605.000000,,2013-11-09 18:42:00,
2013-11-09 13:52:00,61.0,28.0,30.38,SW,225,6.0,15.0,28,0.00,,,0.00,605.000000,,2013-11-09 18:52:00,
2013-11-09 14:02:00,61.0,28.0,30.38,SW,225,6.0,15.0,28,0.00,,,0.00,605.000000,,2013-11-09 19:02:00,
2013-11-09 14:10:00,61.0,27.0,30.37,WSW,245,7.0,18.0,27,0.00,,,0.00,639.000000,,2013-11-09 19:10:00,
2013-11-09 14:42:00,61.0,27.0,30.37,WSW,245,7.0,18.0,27,0.00,,,0.00,639.000000,,2013-11-09 19:42:00,
2013-11-09 14:52:00,61.0,27.0,30.37,WSW,245,7.0,18.0,27,0.00,,,0.00,639.000000,,2013-11-09 19:52:00,
2013-11-09 15:02:00,61.0,27.0,30.37,WSW,245,7.0,18.0,27,0.00,,,0.00,639.000000,,2013-11-09 20:02:00,
2013-11-09 15:10:00,59.0,27.0,30.36,SW,224,8.0,16.0,29,0.00,,,0.00,352.000000,,2013-11-09 20:10:00,
2013-11-09 15:42:00,59.0,27.0,30.36,SW,224,8.0,16.0,29,0.00,,,0.00,352.000000,,2013-11-09 20:42:00,
2013-11-09 15:52:00,59.0,27.0,30.36,SW,224,8.0,16.0,29,0.00,,,0.00,352.000000,,2013-11-09 20:52:00,
2013-11-09 16:03:00,59.0,27.0,30.36,SW,224,8.0,16.0,29,0.00,,,0.00,352.000000,,2013-11-09 21:03:00,
2013-11-09 16:10:00,57.0,28.0,30.36,SW,228,4.0,12.0,33,0.00,,,0.00,146.000000,,2013-11-09 21:10:00,
2013-11-09 16:44:00,57.0,28.0,30.36,SW,228,4.0,12.0,33,0.00,,,0.00,146.000000,,2013-11-09 21:44:00,
2013-11-09 16:54:00,57.0,28.0,30.36,SW,228,4.0,12.0,33,0.00,,,0.00,146.000000,,2013-11-09 21:54:00,
2013-11-09 17:04:00,57.0,28.0,30.36,SW,228,4.0,12.0,33,0.00,,,0.00,146.000000,,2013-11-09 22:04:00,
2013-11-09 17:10:00,51.0,33.0,30.36,SSW,204,2.0,8.0,49,0.00,,,0.00,26.000000,,2013-11-09 22:10:00,
2013-11-09 17:43:00,51.0,33.0,30.36,SSW,204,2.0,8.0,49,0.00,,,0.00,26.000000,,2013-11-09 22:43:00,
2013-11-09 17:54:00,51.0,33.0,30.36,SSW,204,2.0,8.0,49,0.00,,,0.00,26.000000,,2013-11-09 22:54:00,
2013-11-09 18:02:00,51.0,33.0,30.36,SSW,204,2.0,8.0,49,0.00,,,0.00,26.000000,,2013-11-09 23:02:00,
2013-11-09 18:10:00,50.0,36.0,30.34,WSW,242,2.0,4.0,58,0.00,,,0.00,1.000000,,2013-11-09 23:10:00,
2013-11-09 18:42:00,50.0,36.0,30.34,WSW,242,2.0,4.0,58,0.00,,,0.00,1.000000,,2013-11-09 23:42:00,
2013-11-09 18:53:00,50.0,36.0,30.34,WSW,242,2.0,4.0,58,0.00,,,0.00,1.000000,,2013-11-09 23:53:00,
2013-11-09 19:02:00,50.0,36.0,30.34,WSW,242,2.0,4.0,58,0.00,,,0.00,1.000000,,2013-11-10 00:02:00,
2013-11-09 19:10:00,50.0,34.0,30.34,SSW,202,4.0,10.0,55,0.00,,,0.00,0.000000,,2013-11-10 00:10:00,
2013-11-09 19:42:00,50.0,34.0,30.34,SSW,202,4.0,10.0,55,0.00,,,0.00,0.000000,,2013-11-10 00:42:00,
2013-11-09 19:52:00,50.0,34.0,30.34,SSW,202,4.0,10.0,55,0.00,,,0.00,0.000000,,2013-11-10 00:52:00,
2013-11-09 20:02:00,50.0,34.0,30.34,SSW,202,4.0,10.0,55,0.00,,,0.00,0.000000,,2013-11-10 01:02:00,
2013-11-09 20:10:00,49.0,34.0,30.34,SW,228,4.0,8.0,56,0.00,,,0.00,0.000000,,2013-11-10 01:10:00,
2013-11-09 20:42:00,49.0,34.0,30.34,SW,228,4.0,8.0,56,0.00,,,0.00,0.000000,,2013-11-10 01:42:00,
2013-11-09 20:52:00,49.0,34.0,30.34,SW,228,4.0,8.0,56,0.00,,,0.00,0.000000,,2013-11-10 01:52:00,
2013-11-09 21:02:00,49.0,34.0,30.34,SW,228,4.0,8.0,56,0.00,,,0.00,0.000000,,2013-11-10 02:02:00,
2013-11-09 21:10:00,47.0,33.0,30.33,SW,218,3.0,10.0,58,0.00,,,0.00,0.000000,,2013-11-10 02:10:00,
2013-11-09 21:42:00,47.0,33.0,30.33,SW,218,3.0,10.0,58,0.00,,,0.00,0.000000,,2013-11-10 02:42:00,
2013-11-09 21:52:00,47.0,33.0,30.33,SW,218,3.0,10.0,58,0.00,,,0.00,0.000000,,2013-11-10 02:52:00,
2013-11-09 22:03:00,47.0,33.0,30.33,SW,218,3.0,10.0,58,0.00,,,0.00,0.000000,,2013-11-10 03:03:00,
2013-11-09 23:02:00,-999.0,-99.9,30.32,SW,220,2.0,5.0,-999,-99.99,,,-99.99,0.000000,,2013-11-10 04:02:00,
2013-11-09 23:10:00,41.0,35.0,30.32,SW,220,4.0,7.0,79,0.00,,,0.00,0.000000,,2013-11-10 04:10:00,
2013-11-09 23:43:00,41.0,35.0,30.32,SW,220,4.0,7.0,79,0.00,,,0.00,0.000000,,2013-11-10 04:43:00,
2013-11-09 23:52:00,41.0,35.0,30.32,SW,220,4.0,7.0,79,0.00,,,0.00,0.000000,,2013-11-10 04:52:00,